Weather History for Pueblo, CO

Change the Weather History Date:

Friday, November 2, 2012

  Actual Average Record
Temperature  
Mean Temperature 51 °F 45 °F  
Max Temperature 68 °F 63 °F 81 °F (2008)
Min Temperature 34 °F 28 °F -10 °F (1991)
Degree Days  
Heating Degree Days 14 20  
Month to date heating degree days 27 39  
Since 1 July heating degree days 517 549  
Cooling Degree Days 0 0  
Month to date cooling degree days 0 0  
Year to date cooling degree days 1322 897  
Growing Degree Days 2 (Base 50)    
Moisture  
Dew Point 19 °F    
Average Humidity 35    
Maximum Humidity 54    
Minimum Humidity 15    
Precipitation  
Precipitation 0.00 in 0.01 in 0.36 in (1990)
Month to date precipitation 0.00 0.03  
Year to date precipitation 4.70 11.75  
Snow  
Snow 0.00 in 0.10 in 3.80 in (1991)
Month to date snowfall 0.0 0.2  
Since 1 July snowfall 1.6 1.8  
Since 1 September snowfall 1.6 1.8  
Snow Depth 0.00 in    
Sea Level Pressure  
Sea Level Pressure 29.95 in    
Wind  
Wind Speed 6 mph (North)    
Max Wind Speed 18 mph    
Max Gust Speed 22 mph    
Visibility 10 miles    
Events      
T = Trace of Precipitation, MM = Missing Value Source: NWS Daily Summary

Daily Weather History Graph

Daily Weather History Graph

Search for Another Location

Airport:

Trip Planner

Search our weather history database for the weather conditions in past years. The results will help you decide how hot, cold, wet, or windy it might be!

Date:

Astronomy

Nov. 02, 2012 Rise Set
Actual Time 7:25 AM MDT 5:56 PM MDT
Civil Twilight 6:58 AM MDT 6:24 PM MDT
Nautical Twilight 6:27 AM MDT 6:55 PM MDT
Astronomical Twilight 5:56 AM MDT 7:26 PM MDT
Moon 8:47 PM MDT (11/2) 10:46 AM MDT (11/2)
Length of Visible Light 11h 25m
Length of Day
10h 30m
Waning Gibbous, 87% of the Moon is Illuminated
Nov 2
Waning Gibbous
Nov 6
Last Quarter
Nov 13
New
Nov 20
First Quarter
Nov 28
Full

Hourly Weather History & Observations

Time (MDT) Temp. Windchill Dew Point Humidity Pressure Visibility Wind Dir Wind Speed Gust Speed Precip Events Conditions
12:53 AM 42.1 °F 40.2 °F 19.0 °F 40% 29.84 in 10.0 mi WSW 3.5 mph - N/A   Clear
1:53 AM 43.0 °F 40.3 °F 19.0 °F 38% 29.82 in 10.0 mi SW 4.6 mph - N/A   Clear
2:53 AM 46.0 °F 44.8 °F 21.0 °F 37% 29.81 in 10.0 mi South 3.5 mph - N/A   Clear
3:53 AM 45.0 °F 41.8 °F 19.9 °F 37% 29.81 in 10.0 mi West 5.8 mph - N/A   Clear
4:53 AM 48.0 °F - 17.1 °F 29% 29.81 in 10.0 mi NW 10.4 mph - N/A   Clear
5:53 AM 52.0 °F - 16.0 °F 24% 29.83 in 10.0 mi NW 12.7 mph - N/A   Clear
6:53 AM 54.0 °F - 14.0 °F 21% 29.86 in 10.0 mi WNW 10.4 mph - N/A   Clear
7:53 AM 48.9 °F - 15.1 °F 26% 29.90 in 10.0 mi Calm Calm - N/A   Clear
8:14 AM 51.8 °F - 15.8 °F 24% 29.99 in 2.0 mi NW 8.1 mph - N/A   Haze
8:24 AM 53.6 °F - 14.0 °F 21% 29.99 in 10.0 mi NW 10.4 mph - N/A   Clear
8:53 AM 55.0 °F - 12.9 °F 19% 29.94 in 10.0 mi NNW 8.1 mph - N/A   Clear
9:53 AM 59.0 °F - 16.0 °F 19% 29.94 in 10.0 mi North 8.1 mph - N/A   Clear
10:53 AM 62.1 °F - 19.9 °F 20% 29.96 in 10.0 mi NE 6.9 mph - N/A   Clear
11:53 AM 64.9 °F - 21.9 °F 19% 29.95 in 10.0 mi East 5.8 mph - N/A   Clear
12:53 PM 66.9 °F - 21.0 °F 17% 29.94 in 10.0 mi Calm Calm - N/A   Clear
1:53 PM 68.0 °F - 19.0 °F 15% 29.92 in 10.0 mi SE 8.1 mph - N/A   Clear
2:53 PM 68.0 °F - 21.0 °F 17% 29.90 in 9.0 mi NE 10.4 mph - N/A   Clear
3:53 PM 66.9 °F - 19.9 °F 17% 29.91 in 10.0 mi East 10.4 mph - N/A   Clear
4:53 PM 64.0 °F - 23.0 °F 21% 29.93 in 10.0 mi East 17.3 mph - N/A   Clear
5:53 PM 57.9 °F - 21.9 °F 25% 29.96 in 10.0 mi East 10.4 mph - N/A   Clear
6:53 PM 51.1 °F - 21.9 °F 32% 30.01 in 10.0 mi ENE 9.2 mph - N/A   Clear
7:53 PM 46.0 °F - 21.9 °F 39% 30.07 in 10.0 mi Calm Calm - N/A   Clear
8:53 PM 42.1 °F 40.2 °F 21.0 °F 43% 30.09 in 10.0 mi North 3.5 mph - N/A   Clear
9:53 PM 39.9 °F 35.8 °F 21.0 °F 47% 30.12 in 10.0 mi North 5.8 mph - N/A   Clear
10:53 PM 37.9 °F - 21.9 °F 53% 30.13 in 10.0 mi Calm Calm - N/A   Clear
11:53 PM 37.9 °F 35.5 °F 23.0 °F 55% 30.12 in 10.0 mi NW 3.5 mph - N/A   Clear